World > North America > United States > Minnesota

Balaton, Minnesota Regional Weather

Lat: 44.23N, Lon: 95.87W
Wx Zone: MNZ072Web Search
Balaton Weather Warning NWS WEATHER ALERT FOR THE BALATON, MN AREA - Issued: 400 AM CDT Tue Aug 11 2020 Balaton Weather Warning  

Helpful Tip: Abbreviated, 7 Day, 14 Day Forecasts. There is a weather forecast for every taste.

Feedback

Balaton, MN Regional Weather

Expires:202008111900;;293447
ASUS43 KMPX 111810
RWRMN 
WEATHER ROUNDUP FOR MINNESOTA
NATIONAL WEATHER SERVICE TWIN CITIES/CHANHASSEN MN
100 PM CDT TUE AUG 11 2020


NOTE: "FAIR" INDICATES FEW OR NO CLOUDS BELOW 12,000 FEET WITH NO
SIGNIFICANT WEATHER AND/OR OBSTRUCTIONS TO VISIBILITY. N/A MEANS
CURRENT SKY AND/OR WEATHER CONDITIONS ARE NOT AVAILABLE.


MNZ071>073-080-081-089-090-097-098-111900-
   Southwest Minnesota   
  
CITY           SKY/WX    TMP DP  RH WIND       PRES   REMARKS
MONTEVIDEO     FAIR      79  52  38 W8        29.98F                  
GRANITE FALLS  FAIR      81  58  45 S8        29.99F                  
CANBY          FAIR      80  53  39 SW10      29.98F                  
MARSHALL       FAIR      79  55  43 S14       29.98F                  
REDWOOD FALLS  FAIR      78  54  43 SW13      29.99F                  
OLIVIA         FAIR      77  57  50 SW9       29.99F                  
PIPESTONE        N/A     77  57  50 SW12      30.02S                  
WINDOM         FAIR      79  55  44 S10       30.02F                  
WORTHINGTON    FAIR      76  57  51 S14       30.03F                  
JACKSON        FAIR      77  54  44 S12       30.04F                  
SLAYTON        FAIR      77  52  42 S10G17    30.02F                  
$$

SKY/WX - Weather  TMP - Temperature  DP - Dew Point  RH - Relative Humidity
WIND - Wind Direction/Speed PRES - Barometric Pressure VSB - Visibility
WCI - Wind Chill Index E13G22 Wind - East Wind 13 mph/Gusts of 22 mph
Balaton Weather Map
UTC Time: 8/11/2020, 19:01
Your Time: